Location: Aalen
(48.8330°N, 10.1000°E)
Time: 18:56:30
(UTC+02:00)

Transit 4A - Pass Details

Date: 02 August 2021
Orbit: 871 x 974 km, 66.8° (Epoch: 16 September)

Event Time Altitude Azimuth Distance (km) Brightness Sun altitude
Rises 00:39:40 0° 194° (SSW) 3,490 - -22.6°
Reaches altitude 10° 00:42:15 10° 188° (S) 2,542 - -22.7°
Exits shadow 00:47:10 45° 136° (SE) 1,174 8.0 -22.8°
Maximum altitude 00:47:50 47° 116° (ESE) 1,142 8.1 -22.9°
Drops below altitude 10° 00:53:23 10° 44° (NE) 2,528 10.6 -23.0°
Sets 00:55:56 0° 39° (NE) 3,469 11.5 -23.1°
